Overview Statistics Trail Chart Weather Telemetry Raw packets
 

This is the latest recevied weather packets stored in our database for station/object EA1GEC-10. If no packets are shown the sender has not sent any weather packets the latest 10 day(s).

<< 8 9 10 11 12 13 14 >>
Time Temp. Humidity Pressure Rain* Wind** Luminosity Snow
1777657398 17.78° C 60% 1024.4 hPa - - - -
1777656498 17.78° C 60% 1024.4 hPa - - - -
1777655598 17.78° C 59% 1024.4 hPa - - - -
1777654708 17.78° C 59% 1024.4 hPa - - - -
1777653808 18.33° C 59% 1024.4 hPa - - - -
1777652898 18.33° C 58% 1024.5 hPa - - - -
1777651998 18.33° C 58% 1024.7 hPa - - - -
1777651098 18.89° C 56% 1024.7 hPa - - - -
1777650198 19.44° C 56% 1024.6 hPa - - - -
1777649298 19.44° C 56% 1024.7 hPa - - - -
1777648398 19.44° C 56% 1024.7 hPa - - - -
1777647498 19.44° C 55% 1024.8 hPa - - - -
1777646610 20.56° C 55% 1024.8 hPa - - - -
1777645697 21.11° C 54% 1024.9 hPa - - - -
1777643897 20° C 55% 1025.2 hPa - - - -
1777642997 20.56° C 51% 1025.3 hPa - - - -
1777642097 23.33° C 47% 1025.3 hPa - - - -
1777641197 20.56° C 44% 1025.4 hPa - - - -
1777640297 30.56° C 38% 1025.7 hPa - - - -
1777639397 28.89° C 47% 1025.8 hPa - - - -
1777638497 18.89° C 57% 1025.9 hPa - - - -
1777637597 20.56° C 53% 1025.9 hPa - - - -
1777635806 20.56° C 57% 1026 hPa - - - -
1777634896 18.89° C 60% 1026.2 hPa - - - -
1777633996 17.22° C 62% 1026.3 hPa - - - -

* Rain since midnight (hover to see other rain measurements)
** Current wind speed in m/s (hover to see current wind gust speed)